FW4365 Weather Reports


Display with metric or nautical units.
time (UTC)temp
F
wind
direction
speed
MPH
gust
MPH
rain 1hr
in
rain 24hr
in
rain mn
in
humidity
%
barometer
mb
20260510141623 64 328 2.0 3.0 0.00 0.02 0.00 80 1014.3
20260510140035 63 326 2.0 3.0 0.00 0.02 0.00 81 1014.4
20260510134616 62 342 2.0 3.0 0.00 0.02 0.00 82 1014.4
20260510133019 62 317 1.0 4.0 0.00 0.02 0.00 83 1014.3
20260510131609 61 326 2.0 3.0 0.00 0.02 0.00 84 1014.2
20260510130023 60 323 2.0 3.0 0.00 0.02 0.00 86 1014.4
20260510124614 60 328 1.0 2.0 0.00 0.02 0.00 89 1014.6
20260510123027 59 322 2.0 3.0 0.00 0.02 0.00 91 1014.4
20260510120028 60 59 0.0 1.0 0.00 0.02 0.00 95 1014.1
20260510114622 58 60 0.0 3.0 0.00 0.02 0.00 94 1014.1
20260510113029 56 60 2.0 3.0 0.00 0.02 0.00 93 1013.7
20260510111614 56 59 0.0 3.0 0.00 0.02 0.00 94 1013.7
20260510110035 55 59 0.0 3.0 0.00 0.02 0.00 93 1013.4
20260510104626 54 39 0.0 1.0 0.00 0.02 0.00 93 1013.3
20260510103041 53 37 0.0 1.0 0.00 0.02 0.00 92 1012.8
20260510101507 52 37 0.0 1.0 0.00 0.02 0.00 92 1012.7
20260510100101 52 37 0.0 1.0 0.00 0.02 0.00 92 1012.7
20260510094538 53 37 0.0 1.0 0.00 0.02 0.00 92 1012.8
20260510093121 54 37 0.0 2.0 0.00 0.02 0.00 92 1012.8
20260510091542 54 37 1.0 4.0 0.00 0.02 0.00 93 1012.7
20260510090014 54 37 0.0 4.0 0.00 0.02 0.00 92 1012.5
20260510084608 53 113 2.0 5.0 0.00 0.02 0.00 93 1012.6
20260510083025 53 177 0.0 0.0 0.00 0.02 0.00 91 1012.3
20260510081628 54 177 0.0 1.0 0.00 0.02 0.00 91 1012.0
20260510080036 54 221 0.0 2.0 0.00 0.02 0.00 92 1011.8
20260510074629 53 223 0.0 1.0 0.00 0.02 0.00 91 1011.5
20260510073107 54 223 0.0 0.0 0.00 0.02 0.00 90 1011.4
20260510071528 54 223 0.0 0.0 0.00 0.02 0.00 90 1011.4
20260510070110 55 223 0.0 1.0 0.00 0.02 0.00 90 1011.3
20260510064529 55 223 0.0 0.0 0.00 0.02 0.00 90 1011.1
20260510063117 56 223 0.0 1.0 0.00 0.02 0.00 89 1011.0
20260510061542 56 223 0.0 1.0 0.00 0.02 0.00 89 1011.1
20260510060124 57 223 0.0 1.0 0.00 0.02 0.00 89 1011.2
20260510054539 57 223 0.0 2.0 0.00 0.02 0.00 88 1011.3
20260510053130 58 223 0.0 2.0 0.00 0.02 0.00 88 1011.3
20260510051549 58 223 0.0 2.0 0.00 0.02 0.00 87 1011.3
20260510050131 58 223 1.0 3.0 0.00 0.02 0.00 87 1011.3
20260510044540 59 224 1.0 3.0 0.00 0.02 0.00 86 1011.4
20260510043005 59 220 1.0 2.0 0.00 0.02 0.00 85 1011.5
20260510041556 59 219 2.0 4.0 0.00 0.02 0.00 85 1011.3
20260510040007 60 224 2.0 4.0 0.00 0.02 0.02 84 1011.3
20260510034606 60 218 2.0 4.0 0.00 0.02 0.02 84 1011.4
20260510033036 60 216 2.0 3.0 0.00 0.02 0.02 83 1011.4
20260510031524 61 243 3.0 5.0 0.00 0.02 0.02 82 1011.3
20260510030116 61 220 5.0 7.0 0.00 0.02 0.02 81 1011.2
20260510024542 61 268 3.0 5.0 0.00 0.02 0.02 80 1011.1
20260510023008 61 254 3.0 7.0 0.00 0.02 0.02 80 1011.1
20260510020018 62 248 4.0 8.0 0.00 0.02 0.02 78 1011.1
20260510014621 62 277 4.0 7.0 0.00 0.02 0.02 78 1011.0
20260510013044 62 261 4.0 8.0 0.00 0.02 0.02 79 1011.1
20260510011631 63 272 5.0 9.0 0.00 0.02 0.02 81 1010.8
20260510010056 63 265 4.0 7.0 0.00 0.02 0.02 80 1010.6
20260510004522 63 252 4.0 6.0 0.00 0.02 0.02 80 1010.5
20260510003116 63 262 3.0 9.0 0.00 0.02 0.02 80 1010.4
20260510001534 63 240 6.0 10.0 0.00 0.02 0.02 79 1010.3
20260510000122 64 247 6.0 9.0 0.00 0.02 0.02 79 1010.4
20260509234540 65 323 2.0 6.0 0.00 0.02 0.02 78 1010.2
20260509233135 65 255 2.0 6.0 0.00 0.02 0.02 76 1010.0
20260509231544 66 259 3.0 4.0 0.00 0.02 0.02 72 1010.0
20260509230132 66 302 2.0 5.0 0.00 0.02 0.02 71 1009.8
20260509224548 67 303 1.0 5.0 0.00 0.02 0.02 70 1009.9
20260509223006 67 302 2.0 3.0 0.00 0.02 0.02 67 1010.0
20260509221554 66 321 2.0 5.0 0.00 0.02 0.02 70 1009.9
20260509220008 66 259 2.0 4.0 0.00 0.02 0.02 72 1010.1
20260509214628 66 252 3.0 5.0 0.00 0.02 0.02 73 1010.1
20260509213158 66 257 3.0 4.0 0.00 0.02 0.02 72 1010.2
20260509211622 66 319 2.0 4.0 0.00 0.02 0.02 71 1010.0
20260509210046 65 269 3.0 5.0 0.00 0.02 0.02 71 1009.9
20260509204632 66 277 3.0 6.0 0.00 0.02 0.02 70 1009.9
20260509203058 66 262 4.0 6.0 0.00 0.02 0.02 69 1009.9
20260509201632 66 309 3.0 5.0 0.00 0.02 0.02 70 1010.1
20260509200047 65 324 2.0 4.0 0.01 0.02 0.02 70 1010.3
20260509194502 64 262 1.0 4.0 0.02 0.02 0.02 72 1010.6
20260509193057 64 264 3.0 4.0 0.02 0.02 0.02 75 1010.6
20260509191504 64 333 1.0 2.0 0.02 0.02 0.02 74 1010.8
20260509190054 65 338 0.0 2.0 0.01 0.01 0.01 72 1011.0
20260509184525 65 255 2.0 4.0 0.00 0.00 0.00 72 1010.8
20260509183100 64 283 2.0 3.0 0.00 0.00 0.00 74 1011.2
20260509181517 64 283 1.0 2.0 0.00 0.00 0.00 73 1011.4
20260509180117 64 283 0.0 3.0 0.00 0.00 0.00 72 1011.5
20260509174524 64 283 1.0 2.0 0.00 0.00 0.00 72 1011.5
20260509173119 64 283 0.0 2.0 0.00 0.00 0.00 69 1011.6
20260509171539 64 283 1.0 2.0 0.00 0.00 0.00 69 1011.7
20260509170129 64 283 1.0 4.0 0.00 0.00 0.00 69 1011.7
20260509164559 64 254 2.0 6.0 0.00 0.00 0.00 70 1011.7
20260509163017 64 244 5.0 7.0 0.00 0.00 0.00 71 1011.7
20260509161554 63 276 4.0 8.0 0.00 0.00 0.00 70 1012.0
20260509160006 64 242 5.0 7.0 0.00 0.00 0.00 69 1012.0
20260509154557 66 275 3.0 6.0 0.00 0.00 0.00 66 1011.9
20260509153042 66 65 0.0 4.0 0.00 0.00 0.00 63 1012.1
20260509151558 64 65 1.0 4.0 0.00 0.00 0.00 63 1012.5
20260509150017 64 67 0.0 4.0 0.00 0.00 0.00 64 1012.8
20260509144609 64 61 1.0 5.0 0.00 0.00 0.00 64 1013.0
20260509143038 64 61 0.0 4.0 0.00 0.00 0.00 64 1012.9